Weather History for Elizabethton, TN

Change the Weather History Date:

Tuesday, January 28, 2014

  Actual Average (KTRI) Record (KTRI)
Temperature  
Mean Temperature 14 °F 36 °F  
Max Temperature 17 °F 46 °F 70 °F (1970)
Min Temperature 12 °F 25 °F -5 °F (1986)
Degree Days  
Heating Degree Days 50 29  
Month to date heating degree days 838  
Since 1 July heating degree days 2567  
Cooling Degree Days 0 0  
Month to date cooling degree days 0  
Year to date cooling degree days 0  
Moisture  
Dew Point 6 °F    
Average Humidity 68    
Maximum Humidity 86    
Minimum Humidity 35    
Precipitation  
Precipitation 0.00 in 0.11 in 1.94 in (1957)
Month to date precipitation 3.03  
Year to date precipitation 3.03  
Snow  
Snow 0.00 in 0.10 in - ()
Month to date snowfall 4.2  
Since 1 July snowfall 6.9  
Snow Depth -    
Sea Level Pressure  
Sea Level Pressure 30.19 in    
Wind  
Wind Speed 4 mph (WSW)    
Max Wind Speed 10 mph    
Max Gust Speed -    
Visibility 7 miles    
Events Snow    
T = Trace of Precipitation, MM = Missing Value Source: NWS Daily Summary

Daily Weather History Graph

Daily Weather History Graph

Search for Another Location

Airport:

Trip Planner

Search our weather history database for the weather conditions in past years. The results will help you decide how hot, cold, wet, or windy it might be!

Date:

Astronomy

Jan. 28, 2014 Rise Set
Actual Time 7:32 AM EST 5:50 PM EST
Civil Twilight 7:05 AM EST 6:18 PM EST
Nautical Twilight 6:34 AM EST 6:49 PM EST
Astronomical Twilight 6:04 AM EST 7:19 PM EST
Moon 5:12 AM EST (1/28) 3:40 PM EST (1/28)
Length of Visible Light 11h 12m
Length of Day
10h 17m
Waning Crescent, 7% of the Moon is Illuminated
Jan 28
Waning Crescent
Jan 30
New
Feb 6
First Quarter
Feb 14
Full
Feb 22
Last Quarter

Hourly Weather History & Observations

Time (EST) Temp. Windchill Dew Point Humidity Pressure Visibility Wind Dir Wind Speed Gust Speed Precip Events Conditions
12:15 AM 17.6 °F 8.2 °F -4.0 °F 38% 30.19 in 10.0 mi Variable 6.9 mph - N/A   Clear
12:35 AM 17.6 °F - -5.8 °F 35% 30.18 in 10.0 mi Calm Calm - N/A   Clear
12:55 AM 17.6 °F - -5.8 °F 35% 30.19 in 10.0 mi Calm Calm - N/A   Clear
1:15 AM 17.6 °F 10.7 °F -2.2 °F 42% 30.19 in 10.0 mi WNW 4.6 mph - N/A   Clear
1:35 AM 17.6 °F 10.7 °F -2.2 °F 42% 30.20 in 10.0 mi West 4.6 mph - N/A   Clear
1:55 AM 15.8 °F 10.2 °F -2.2 °F 45% 30.19 in 10.0 mi Variable 3.5 mph - N/A   Clear
2:15 AM 15.8 °F - -4.0 °F 41% 30.19 in 10.0 mi Calm Calm - N/A   Clear
2:35 AM 15.8 °F 10.2 °F -2.2 °F 45% 30.18 in 10.0 mi North 3.5 mph - N/A   Clear
2:55 AM 15.8 °F - -2.2 °F 45% 30.20 in 10.0 mi Calm Calm - N/A   Clear
3:15 AM 15.8 °F 8.6 °F -2.2 °F 45% 30.20 in 10.0 mi North 4.6 mph - N/A   Partly Cloudy
3:35 AM 15.8 °F 7.2 °F -2.2 °F 45% 30.20 in 10.0 mi NNE 5.8 mph - N/A   Overcast
3:55 AM 15.8 °F 10.2 °F -2.2 °F 45% 30.20 in 10.0 mi Variable 3.5 mph - N/A   Overcast
4:15 AM 15.8 °F - -4.0 °F 41% 30.20 in 10.0 mi Calm Calm - N/A   Overcast
4:35 AM 15.8 °F - -2.2 °F 45% 30.20 in 10.0 mi Calm Calm - N/A   Overcast
4:55 AM 15.8 °F - -4.0 °F 41% 30.20 in 10.0 mi Calm Calm - N/A   Overcast
5:15 AM 15.8 °F - -2.2 °F 45% 30.21 in 10.0 mi Calm Calm - N/A   Mostly Cloudy
5:35 AM 15.8 °F - -2.2 °F 45% 30.22 in 10.0 mi Calm Calm - N/A   Mostly Cloudy
5:55 AM 15.8 °F - -2.2 °F 45% 30.22 in 10.0 mi Calm Calm - N/A   Overcast
6:15 AM 14.0 °F - -2.2 °F 49% 30.22 in 10.0 mi Calm Calm - N/A   Overcast
6:35 AM 15.8 °F - -2.2 °F 45% 30.22 in 10.0 mi Calm Calm - N/A   Overcast
6:55 AM 14.0 °F 8.2 °F 1.4 °F 57% 30.23 in 10.0 mi NNE 3.5 mph - N/A   Overcast
7:15 AM 12.2 °F 6.1 °F 3.2 °F 67% 30.22 in 9.0 mi NNE 3.5 mph - N/A Snow Light Snow
7:35 AM 12.2 °F 4.3 °F 5.0 °F 73% 30.22 in 9.0 mi ENE 4.6 mph - N/A Snow Light Snow
7:55 AM 12.2 °F 6.1 °F 6.8 °F 79% 30.22 in 10.0 mi Variable 3.5 mph - N/A Snow Light Snow
8:15 AM 12.2 °F - 6.8 °F 79% 30.22 in 10.0 mi Calm Calm - N/A   Overcast
8:35 AM 14.0 °F - 5.0 °F 67% 30.23 in 10.0 mi Calm Calm - N/A   Overcast
8:55 AM 14.0 °F - 6.8 °F 73% 30.23 in 10.0 mi Calm Calm - N/A   Overcast
9:15 AM 15.8 °F 10.2 °F 6.8 °F 68% 30.23 in 10.0 mi SSW 3.5 mph - N/A   Overcast
9:35 AM 15.8 °F 8.6 °F 5.0 °F 62% 30.22 in 10.0 mi Variable 4.6 mph - N/A   Overcast
9:55 AM 15.8 °F 8.6 °F 6.8 °F 68% 30.22 in 10.0 mi WSW 4.6 mph - N/A   Overcast
10:15 AM 15.8 °F 7.2 °F 6.8 °F 68% 30.22 in 10.0 mi WSW 5.8 mph - N/A   Overcast
10:35 AM 15.8 °F 7.2 °F 8.6 °F 73% 30.23 in 5.0 mi SW 5.8 mph - N/A Snow Light Snow
10:55 AM 15.8 °F 8.6 °F 10.4 °F 79% 30.23 in 4.0 mi SW 4.6 mph - N/A Snow Light Snow
11:15 AM 17.6 °F - 10.4 °F 73% 30.22 in 2.5 mi Calm Calm - N/A Snow Light Snow
11:35 AM 15.8 °F 7.2 °F 10.4 °F 79% 30.24 in 1.8 mi WSW 5.8 mph - N/A Snow Light Snow
11:55 AM 15.8 °F 8.6 °F 10.4 °F 79% 30.22 in 1.5 mi West 4.6 mph - N/A Snow Light Snow
12:15 PM 15.8 °F 10.2 °F 12.2 °F 86% 30.21 in 1.2 mi SSW 3.5 mph - N/A Snow Light Snow
12:35 PM 15.8 °F - 12.2 °F 86% 30.22 in 1.8 mi Calm Calm - N/A Snow Light Snow
12:55 PM 17.6 °F 12.3 °F 10.4 °F 73% 30.20 in 5.0 mi South 3.5 mph - N/A Snow Light Snow
1:15 PM 15.8 °F 7.2 °F 10.4 °F 79% 30.18 in 4.0 mi South 5.8 mph - N/A Snow Light Snow
1:35 PM 17.6 °F 9.3 °F 12.2 °F 79% 30.18 in 2.5 mi SSW 5.8 mph - N/A Snow Light Snow
1:55 PM 17.6 °F 9.3 °F 12.2 °F 79% 30.17 in 2.0 mi SW 5.8 mph - N/A Snow Light Snow
2:15 PM 17.6 °F 9.3 °F 12.2 °F 79% 30.16 in 3.0 mi SW 5.8 mph - N/A Snow Light Snow
2:35 PM 17.6 °F 9.3 °F 12.2 °F 79% 30.15 in 2.5 mi SW 5.8 mph - N/A Snow Light Snow
2:55 PM 17.6 °F 8.2 °F 12.2 °F 79% 30.15 in 2.5 mi WSW 6.9 mph - N/A Snow Light Snow
3:15 PM 17.6 °F 6.4 °F 12.2 °F 79% 30.15 in 3.0 mi West 9.2 mph - N/A Snow Light Snow
3:35 PM 17.6 °F 5.7 °F 12.2 °F 79% 30.15 in 3.0 mi West 10.4 mph - N/A Snow Light Snow
3:55 PM 17.6 °F 6.4 °F 12.2 °F 79% 30.15 in 1.8 mi West 9.2 mph - N/A Snow Light Snow
4:15 PM 17.6 °F 6.4 °F 12.2 °F 79% 30.14 in 3.0 mi West 9.2 mph - N/A Snow Light Snow
4:35 PM 15.8 °F 5.1 °F 12.2 °F 86% 30.15 in 1.5 mi West 8.1 mph - N/A Snow Light Snow
4:55 PM 17.6 °F 6.4 °F 12.2 °F 79% 30.15 in 2.5 mi West 9.2 mph - N/A Snow Light Snow
5:15 PM 15.8 °F 6.1 °F 12.2 °F 86% 30.15 in 3.0 mi West 6.9 mph - N/A Snow Light Snow
5:35 PM 15.8 °F 6.1 °F 12.2 °F 86% 30.15 in 10.0 mi West 6.9 mph - N/A Snow Light Snow
5:55 PM 15.8 °F 5.1 °F 10.4 °F 79% 30.17 in 8.0 mi West 8.1 mph - N/A Snow Light Snow
6:15 PM 15.8 °F 5.1 °F 10.4 °F 79% 30.16 in 5.0 mi West 8.1 mph - N/A Snow Light Snow
6:35 PM 15.8 °F 7.2 °F 10.4 °F 79% 30.17 in 4.0 mi WSW 5.8 mph - N/A Snow Light Snow
6:55 PM 15.8 °F 6.1 °F 10.4 °F 79% 30.16 in 5.0 mi SW 6.9 mph - N/A Snow Light Snow
7:15 PM 15.8 °F 6.1 °F 10.4 °F 79% 30.17 in 5.0 mi WSW 6.9 mph - N/A Snow Light Snow
7:35 PM 15.8 °F 6.1 °F 10.4 °F 79% 30.17 in 6.0 mi WSW 6.9 mph - N/A Snow Light Snow
7:55 PM 15.8 °F 6.1 °F 10.4 °F 79% 30.17 in 5.0 mi WSW 6.9 mph - N/A Snow Light Snow
8:15 PM 15.8 °F 6.1 °F 10.4 °F 79% 30.17 in 4.0 mi West 6.9 mph - N/A Snow Light Snow
8:35 PM 14.0 °F 3.9 °F 10.4 °F 86% 30.17 in 4.0 mi SW 6.9 mph - N/A Snow Light Snow
8:55 PM 15.8 °F 8.6 °F 10.4 °F 79% 30.17 in 5.0 mi SW 4.6 mph - N/A Snow Light Snow
9:15 PM 15.8 °F - 10.4 °F 79% 30.16 in 4.0 mi Calm Calm - N/A Snow Light Snow
9:35 PM 15.8 °F 8.6 °F 10.4 °F 79% 30.15 in 8.0 mi West 4.6 mph - N/A Snow Light Snow
9:55 PM 15.8 °F 8.6 °F 10.4 °F 79% 30.16 in 7.0 mi West 4.6 mph - N/A Snow Light Snow
10:15 PM 15.8 °F 8.6 °F 10.4 °F 79% 30.16 in 9.0 mi West 4.6 mph - N/A Snow Light Snow
10:35 PM 14.0 °F 5.1 °F 10.4 °F 86% 30.17 in 10.0 mi West 5.8 mph - N/A Snow Light Snow
10:55 PM 14.0 °F 5.1 °F 8.6 °F 79% 30.16 in 10.0 mi West 5.8 mph - N/A Snow Light Snow
11:15 PM 14.0 °F 5.1 °F 8.6 °F 79% 30.18 in 10.0 mi West 5.8 mph - N/A   Overcast
11:35 PM 14.0 °F 5.1 °F 10.4 °F 86% 30.17 in 5.0 mi West 5.8 mph - N/A Snow Light Snow
11:55 PM 14.0 °F 5.1 °F 8.6 °F 79% 30.18 in 5.0 mi WSW 5.8 mph - N/A Snow Light Snow